Hourly Data Report for October 11, 2016

All times are specified in Local Standard Time (LST). Add 1 hour to adjust for Daylight Saving Time where and when it is observed.

SAINT JOHN A
NEW BRUNSWICK

45°18'58.000" N
65°53'24.000" W
108.80 m
8104901
71609
YSJ

Download Data

Hourly Data (October 2016)
Hourly Data Report for October 11, 2016
Temp Definition
°C
Dew Point Temp Definition
°C
Rel Hum Definition
%
Wind Dir Definition
10's deg

Wind Spd Definition
km/h
Visibility Definition
km
Stn Press Definition
kPa
Hmdx Definition


Wind Chill Definition


Weather Definition


TIME
00:00 Legend Double Dagger 3.8 0.3 78 33 16 24.1 100.87     LegendNANA
01:00 Legend Double Dagger 3.0 0.6 84 32 20 24.1 100.94     LegendNANA
02:00 Legend Double Dagger 2.8 0.2 83 33 20 24.1 100.98     Clear
03:00 Legend Double Dagger 2.6 0.2 84 34 22 24.1 101.01     LegendNANA
04:00 Legend Double Dagger 2.8 0.4 84 34 28 24.1 101.04     LegendNANA
05:00 Legend Double Dagger 2.8 -0.1 81 34 25 24.1 101.13     Clear
06:00 Legend Double Dagger 2.4 -0.4 82 35 12 24.1 101.32     LegendNANA
07:00 Legend Double Dagger 2.4 0.0 84 2 9 24.1 101.37     LegendNANA
08:00 Legend Double Dagger 4.1 0.3 76 34 9 24.1 101.49     Clear
09:00 Legend Double Dagger 6.0 0.1 66 35 17 24.1 101.50     LegendNANA
10:00 Legend Double Dagger 7.2 0.2 61 33 16 24.1 101.54     LegendNANA
11:00 Legend Double Dagger 9.4 1.3 57 36 14 24.1 101.57     Clear
12:00 Legend Double Dagger 10.8 1.4 52 34 8 24.1 101.58     LegendNANA
13:00 Legend Double Dagger 11.9 1.3 48 35 9 24.1 101.51     LegendNANA
14:00 Legend Double Dagger 12.8 -1.5 37 34 10 24.1 101.49     Clear
15:00 Legend Double Dagger 13.7 -2.2 33 35 11 24.1 101.47     LegendNANA
16:00 Legend Double Dagger 14.0 0.3 39 25 3 24.1 101.46     LegendNANA
17:00 Legend Double Dagger 10.3 3.4 62 22 14 24.1 101.53     Clear
18:00 Legend Double Dagger 8.0 4.4 78 22 7 24.1 101.55     LegendNANA
19:00 Legend Double Dagger 5.9 4.2 89 19 3 24.1 101.58     LegendNANA
20:00 Legend Double Dagger 3.6 3.6 100 36 3 24.1 101.61     Clear
21:00 Legend Double Dagger 3.1 3.1 100 19 5 24.1 101.60     LegendNANA
22:00 Legend Double Dagger 2.6 2.6 100 36 1 24.1 101.63     LegendNANA
23:00 Legend Double Dagger 1.2 1.2 100 36 2 24.1 101.60     Clear

Notes on Data Quality.

Legend

  • E = Estimated
  • M = Missing
  • NA = Not Available
  • ‡ = Partner data that is not subject to review by the National Climate Archives
Date modified: